Station Historical Data
Daily Summary for March 09, 2018 Units:  English    Metric   Both
« Previous Day
Next Day »
Daily Weekly Monthly Yearly Custom
  High: Low: Average:
Temperature: 34.3 °F 23.7 °F 29.5 °F
Dew Point: 29.4 °F 20.0 °F 24.8 °F
Humidity: 89% 70% 83%
Wind Speed: 16.0mph 0.0mph 5.8mph
Wind Gust: 25.0mph - -
Wind- - West
Pressure: 29.93 in 29.72 in -
Precipitation: 0.00 in    
Historical Graphs
 
 
Tabular Data for March 09, 2018
Time Temperature Dew Point Pressure Wind Wind Speed Wind Gust Humidity Rainfall Rate (Hourly)
00:04 23.7 °F 20.9 °F 29.72 in Calm   2.0 mph 89% 0.00 in
00:09 24.3 °F 21.5 °F 29.72 in Calm   2.0 mph 89% 0.00 in
00:14 24.6 °F 21.8 °F 29.72 in Calm     89% 0.00 in
00:19 24.9 °F 22.1 °F 29.72 in Calm     89% 0.00 in
00:24 25.2 °F 22.1 °F 29.72 in Calm     88% 0.00 in
00:29 25.4 °F 22.3 °F 29.72 in Calm   2.0 mph 88% 0.00 in
00:34 25.6 °F 22.5 °F 29.72 in Calm     88% 0.00 in
00:39 25.9 °F 22.8 °F 29.72 in Calm     88% 0.00 in
00:44 26.1 °F 23.0 °F 29.72 in Calm   4.0 mph 88% 0.00 in
00:49 26.4 °F 23.1 °F 29.72 in West 1.0 mph 4.0 mph 87% 0.00 in
00:54 26.5 °F 22.9 °F 29.72 in West 2.0 mph 3.0 mph 86% 0.00 in
00:59 26.3 °F 22.7 °F 29.72 in West 1.0 mph 2.0 mph 86% 0.00 in
01:04 26.1 °F 22.5 °F 29.72 in Calm   3.0 mph 86% 0.00 in
01:09 26.0 °F 22.4 °F 29.72 in Calm     86% 0.00 in
01:14 26.1 °F 22.5 °F 29.72 in West 1.0 mph 4.0 mph 86% 0.00 in
01:19 26.2 °F 22.6 °F 29.72 in West 1.0 mph 5.0 mph 86% 0.00 in
01:24 26.3 °F 22.4 °F 29.72 in WNW 2.0 mph 5.0 mph 85% 0.00 in
01:29 26.4 °F 22.5 °F 29.73 in West 2.0 mph 6.0 mph 85% 0.00 in
01:34 26.4 °F 22.5 °F 29.73 in West 2.0 mph 6.0 mph 85% 0.00 in
01:39 26.3 °F 22.4 °F 29.72 in West 2.0 mph 6.0 mph 85% 0.00 in
01:44 26.2 °F 22.3 °F 29.73 in West 3.0 mph 6.0 mph 85% 0.00 in
01:49 26.3 °F 22.4 °F 29.73 in West 3.0 mph 6.0 mph 85% 0.00 in
01:54 26.2 °F 22.0 °F 29.73 in WSW 2.0 mph 5.0 mph 84% 0.00 in
01:59 26.2 °F 22.0 °F 29.72 in West 1.0 mph 7.0 mph 84% 0.00 in
02:04 26.2 °F 22.0 °F 29.72 in SW 5.0 mph 7.0 mph 84% 0.00 in
02:09 26.2 °F 22.0 °F 29.73 in WSW 3.0 mph 7.0 mph 84% 0.00 in
02:14 26.1 °F 21.9 °F 29.73 in WSW 3.0 mph 6.0 mph 84% 0.00 in
02:19 26.1 °F 21.9 °F 29.73 in SW 6.0 mph 8.0 mph 84% 0.00 in
02:24 26.1 °F 22.2 °F 29.73 in WSW 4.0 mph 8.0 mph 85% 0.00 in
02:29 26.1 °F 22.2 °F 29.72 in WSW 4.0 mph 9.0 mph 85% 0.00 in
02:34 26.1 °F 22.2 °F 29.72 in West 4.0 mph 9.0 mph 85% 0.00 in
02:39 26.1 °F 22.2 °F 29.72 in West 4.0 mph 9.0 mph 85% 0.00 in
02:44 26.2 °F 22.3 °F 29.72 in West 4.0 mph 8.0 mph 85% 0.00 in
02:49 26.2 °F 22.0 °F 29.72 in West 4.0 mph 10.0 mph 84% 0.00 in
02:54 26.2 °F 22.0 °F 29.72 in West 4.0 mph 12.0 mph 84% 0.00 in
02:59 26.1 °F 21.9 °F 29.72 in WSW 5.0 mph 12.0 mph 84% 0.00 in
03:04 26.1 °F 21.9 °F 29.72 in SW 7.0 mph 9.0 mph 84% 0.00 in
03:09 26.1 °F 21.9 °F 29.72 in WSW 5.0 mph 9.0 mph 84% 0.00 in
03:14 26.1 °F 21.9 °F 29.72 in WNW 5.0 mph 11.0 mph 84% 0.00 in
03:19 26.3 °F 22.1 °F 29.73 in West 4.0 mph 7.0 mph 84% 0.00 in
03:24 26.3 °F 22.1 °F 29.73 in WSW 4.0 mph 7.0 mph 84% 0.00 in
03:29 26.3 °F 22.1 °F 29.72 in West 4.0 mph 10.0 mph 84% 0.00 in
03:34 26.4 °F 22.2 °F 29.73 in West 5.0 mph 10.0 mph 84% 0.00 in
03:39 26.4 °F 22.2 °F 29.73 in West 4.0 mph 10.0 mph 84% 0.00 in
03:44 26.5 °F 22.3 °F 29.73 in West 5.0 mph 10.0 mph 84% 0.00 in
03:49 26.5 °F 22.6 °F 29.73 in West 4.0 mph 9.0 mph 85% 0.00 in
03:54 26.6 °F 22.7 °F 29.73 in WSW 5.0 mph 7.0 mph 85% 0.00 in
03:59 26.7 °F 22.8 °F 29.73 in West 4.0 mph 11.0 mph 85% 0.00 in
04:04 26.7 °F 22.8 °F 29.73 in West 3.0 mph 7.0 mph 85% 0.00 in
04:09 26.7 °F 22.8 °F 29.73 in West 4.0 mph 8.0 mph 85% 0.00 in
04:14 26.8 °F 22.6 °F 29.73 in West 4.0 mph 8.0 mph 84% 0.00 in
04:19 26.9 °F 22.7 °F 29.73 in West 4.0 mph 10.0 mph 84% 0.00 in
04:24 26.9 °F 22.7 °F 29.73 in West 4.0 mph 10.0 mph 84% 0.00 in
04:29 26.9 °F 22.7 °F 29.74 in West 4.0 mph 10.0 mph 84% 0.00 in
04:34 27.0 °F 22.8 °F 29.74 in WNW 10.0 mph 12.0 mph 84% 0.00 in
04:39 27.0 °F 22.8 °F 29.74 in WNW 3.0 mph 10.0 mph 84% 0.00 in
04:44 27.0 °F 22.8 °F 29.74 in West 4.0 mph 12.0 mph 84% 0.00 in
04:49 27.1 °F 22.9 °F 29.74 in West 3.0 mph 9.0 mph 84% 0.00 in
04:54 27.1 °F 22.9 °F 29.74 in West 3.0 mph 9.0 mph 84% 0.00 in
04:59 27.2 °F 23.0 °F 29.74 in West 4.0 mph 10.0 mph 84% 0.00 in
05:04 27.2 °F 23.0 °F 29.74 in SW 3.0 mph 11.0 mph 84% 0.00 in
05:09 27.2 °F 23.3 °F 29.75 in WNW 2.0 mph 7.0 mph 85% 0.00 in
05:14 27.2 °F 23.3 °F 29.75 in WSW 4.0 mph 7.0 mph 85% 0.00 in
05:19 27.2 °F 23.3 °F 29.75 in West 7.0 mph 9.0 mph 85% 0.00 in
05:24 27.2 °F 23.3 °F 29.75 in West 3.0 mph 9.0 mph 85% 0.00 in
05:29 27.2 °F 23.3 °F 29.75 in WNW 5.0 mph 10.0 mph 85% 0.00 in
05:34 27.2 °F 23.3 °F 29.75 in WSW 1.0 mph 8.0 mph 85% 0.00 in
05:39 27.2 °F 23.3 °F 29.75 in WSW 4.0 mph 7.0 mph 85% 0.00 in
05:44 27.2 °F 23.3 °F 29.75 in WSW 3.0 mph 9.0 mph 85% 0.00 in
05:49 27.3 °F 23.4 °F 29.75 in WNW 6.0 mph 10.0 mph 85% 0.00 in
05:54 27.3 °F 23.4 °F 29.75 in West 6.0 mph 10.0 mph 85% 0.00 in
05:59 27.3 °F 23.4 °F 29.75 in West 5.0 mph 9.0 mph 85% 0.00 in
06:04 27.3 °F 23.1 °F 29.75 in West 4.0 mph 9.0 mph 84% 0.00 in
06:09 27.2 °F 23.3 °F 29.75 in West 2.0 mph 8.0 mph 85% 0.00 in
06:14 27.2 °F 23.3 °F 29.75 in West 4.0 mph 9.0 mph 85% 0.00 in
06:19 27.3 °F 23.4 °F 29.75 in WNW 4.0 mph 9.0 mph 85% 0.00 in
06:24 27.4 °F 23.5 °F 29.76 in West 4.0 mph 9.0 mph 85% 0.00 in
06:29 27.4 °F 23.5 °F 29.76 in West 4.0 mph 9.0 mph 85% 0.00 in
06:34 27.4 °F 23.5 °F 29.76 in West 4.0 mph 9.0 mph 85% 0.00 in
06:39 27.4 °F 23.5 °F 29.76 in West 4.0 mph 9.0 mph 85% 0.00 in
06:44 27.4 °F 23.5 °F 29.76 in West 8.0 mph 11.0 mph 85% 0.00 in
06:49 27.5 °F 23.6 °F 29.76 in West 6.0 mph 9.0 mph 85% 0.00 in
06:54 27.5 °F 23.6 °F 29.76 in SW 5.0 mph 8.0 mph 85% 0.00 in
06:59 27.6 °F 23.7 °F 29.76 in West 5.0 mph 10.0 mph 85% 0.00 in
07:04 27.6 °F 23.7 °F 29.76 in West 5.0 mph 10.0 mph 85% 0.00 in
07:09 27.7 °F 23.8 °F 29.77 in West 4.0 mph 7.0 mph 85% 0.00 in
07:14 27.8 °F 23.9 °F 29.77 in West 4.0 mph 12.0 mph 85% 0.00 in
07:19 27.9 °F 24.3 °F 29.77 in West 5.0 mph 12.0 mph 86% 0.00 in
07:24 28.0 °F 24.1 °F 29.77 in West 5.0 mph 10.0 mph 85% 0.00 in
07:29 28.2 °F 24.3 °F 29.77 in West 4.0 mph 10.0 mph 85% 0.00 in
07:34 28.2 °F 24.3 °F 29.77 in West 4.0 mph 10.0 mph 85% 0.00 in
07:39 28.3 °F 24.4 °F 29.77 in West 5.0 mph 12.0 mph 85% 0.00 in
07:44 28.4 °F 24.5 °F 29.77 in West 6.0 mph 10.0 mph 85% 0.00 in
07:49 28.6 °F 24.7 °F 29.77 in WNW 2.0 mph 10.0 mph 85% 0.00 in
07:54 28.8 °F 24.9 °F 29.77 in NW 5.0 mph 10.0 mph 85% 0.00 in
07:59 29.0 °F 24.8 °F 29.77 in West 2.0 mph 10.0 mph 84% 0.00 in
08:04 29.2 °F 25.0 °F 29.77 in WSW 4.0 mph 12.0 mph 84% 0.00 in
08:09 29.4 °F 25.2 °F 29.77 in West 5.0 mph 12.0 mph 84% 0.00 in
08:14 29.6 °F 25.1 °F 29.77 in West 5.0 mph 10.0 mph 83% 0.00 in
08:19 29.6 °F 25.1 °F 29.77 in West 6.0 mph 14.0 mph 83% 0.00 in
08:24 29.7 °F 25.2 °F 29.78 in WNW 8.0 mph 12.0 mph 83% 0.00 in
08:29 29.8 °F 25.3 °F 29.78 in West 5.0 mph 12.0 mph 83% 0.00 in
08:34 29.9 °F 25.4 °F 29.77 in West 7.0 mph 10.0 mph 83% 0.00 in
08:39 30.0 °F 25.2 °F 29.77 in NW 8.0 mph 11.0 mph 82% 0.00 in
08:44 30.1 °F 25.3 °F 29.77 in West 6.0 mph 11.0 mph 82% 0.00 in
08:49 30.2 °F 25.4 °F 29.77 in WSW 5.0 mph 11.0 mph 82% 0.00 in
08:54 30.3 °F 25.8 °F 29.77 in WSW 5.0 mph 13.0 mph 83% 0.00 in
08:59 30.5 °F 26.0 °F 29.77 in WSW 5.0 mph 8.0 mph 83% 0.00 in
09:04 30.6 °F 26.1 °F 29.77 in West 3.0 mph 10.0 mph 83% 0.00 in
09:09 30.7 °F 26.1 °F 29.77 in WSW 4.0 mph 11.0 mph 83% 0.01 in
09:14 30.8 °F 26.2 °F 29.77 in West 9.0 mph 12.0 mph 83% 0.01 in
09:19 31.1 °F 26.5 °F 29.77 in WSW 5.0 mph 12.0 mph 83% 0.01 in
09:24 31.2 °F 26.3 °F 29.77 in WSW 6.0 mph 13.0 mph 82% 0.01 in
09:29 31.4 °F 26.5 °F 29.77 in WSW 7.0 mph 13.0 mph 82% 0.01 in
09:34 31.7 °F 26.8 °F 29.77 in West 6.0 mph 14.0 mph 82% 0.01 in
09:39 32.0 °F 27.1 °F 29.77 in WSW 5.0 mph 14.0 mph 82% 0.01 in
09:44 32.1 °F 27.2 °F 29.77 in West 2.0 mph 9.0 mph 82% 0.01 in
09:49 32.5 °F 27.6 °F 29.77 in West 6.0 mph 12.0 mph 82% 0.01 in
09:54 32.5 °F 27.6 °F 29.77 in WSW 6.0 mph 13.0 mph 82% 0.01 in
09:59 32.3 °F 27.4 °F 29.77 in WSW 7.0 mph 13.0 mph 82% 0.01 in
10:04 32.3 °F 27.7 °F 29.77 in WSW 6.0 mph 12.0 mph 83% 0.01 in
10:09 32.2 °F 27.9 °F 29.77 in WSW 7.0 mph 16.0 mph 84% 0.00 in
10:14 32.1 °F 27.8 °F 29.77 in WSW 7.0 mph 12.0 mph 84% 0.00 in
10:19 32.2 °F 27.9 °F 29.77 in SW 11.0 mph 13.0 mph 84% 0.00 in
10:24 32.2 °F 27.9 °F 29.78 in West 5.0 mph 13.0 mph 84% 0.00 in
10:29 31.8 °F 27.5 °F 29.78 in West 8.0 mph 16.0 mph 84% 0.00 in
10:34 32.1 °F 28.1 °F 29.77 in West 7.0 mph 16.0 mph 85% 0.00 in
10:39 32.1 °F 28.1 °F 29.77 in West 5.0 mph 15.0 mph 85% 0.00 in
10:44 32.0 °F 28.0 °F 29.78 in West 6.0 mph 15.0 mph 85% 0.00 in
10:49 32.4 °F 28.4 °F 29.78 in West 4.0 mph 11.0 mph 85% 0.00 in
10:54 33.0 °F 29.0 °F 29.78 in WNW 10.0 mph 13.0 mph 85% 0.00 in
10:59 33.0 °F 28.7 °F 29.78 in WNW 7.0 mph 10.0 mph 84% 0.00 in
11:04 33.0 °F 28.4 °F 29.78 in West 7.0 mph 16.0 mph 83% 0.00 in
11:09 33.0 °F 28.4 °F 29.78 in West 7.0 mph 16.0 mph 83% 0.00 in
11:14 33.3 °F 28.7 °F 29.78 in West 7.0 mph 14.0 mph 83% 0.00 in
11:19 33.5 °F 28.9 °F 29.78 in WNW 7.0 mph 10.0 mph 83% 0.00 in
11:24 33.6 °F 28.7 °F 29.78 in WSW 8.0 mph 14.0 mph 82% 0.00 in
11:29 33.8 °F 28.9 °F 29.78 in West 9.0 mph 13.0 mph 82% 0.00 in
11:34 33.9 °F 29.0 °F 29.78 in West 4.0 mph 12.0 mph 82% 0.00 in
11:39 34.3 °F 29.4 °F 29.78 in West 6.0 mph 12.0 mph 82% 0.00 in
11:44 34.3 °F 29.1 °F 29.78 in West 4.0 mph 9.0 mph 81% 0.00 in
11:49 34.0 °F 28.8 °F 29.78 in West 6.0 mph 13.0 mph 81% 0.00 in
11:54 33.9 °F 28.7 °F 29.78 in West 5.0 mph 17.0 mph 81% 0.00 in
11:59 34.1 °F 28.9 °F 29.78 in WSW 8.0 mph 10.0 mph 81% 0.00 in
12:04 33.6 °F 28.4 °F 29.78 in NNW 7.0 mph 11.0 mph 81% 0.00 in
12:09 33.2 °F 28.3 °F 29.78 in NNW 12.0 mph 12.0 mph 82% 0.00 in
12:14 32.8 °F 28.5 °F 29.78 in WSW 6.0 mph 13.0 mph 84% 0.00 in
12:19 32.4 °F 28.1 °F 29.78 in WSW 7.0 mph 13.0 mph 84% 0.00 in
12:24 32.3 °F 28.3 °F 29.78 in WSW 6.0 mph 13.0 mph 85% 0.00 in
12:29 32.3 °F 28.6 °F 29.78 in WSW 4.0 mph 13.0 mph 86% 0.00 in
12:34 32.4 °F 28.7 °F 29.78 in WSW 3.0 mph 13.0 mph 86% 0.00 in
12:39 32.5 °F 28.5 °F 29.78 in SSW 9.0 mph 19.0 mph 85% 0.00 in
12:44 32.6 °F 28.6 °F 29.78 in WSW 16.0 mph 16.0 mph 85% 0.00 in
12:49 32.4 °F 28.4 °F 29.78 in WSW 9.0 mph 16.0 mph 85% 0.00 in
12:54 32.2 °F 28.2 °F 29.78 in WSW 10.0 mph 19.0 mph 85% 0.00 in
12:59 32.1 °F 28.1 °F 29.78 in WSW 15.0 mph 18.0 mph 85% 0.00 in
13:04 32.5 °F 28.5 °F 29.78 in West 7.0 mph 17.0 mph 85% 0.00 in
13:09 32.8 °F 28.5 °F 29.78 in WSW 10.0 mph 18.0 mph 84% 0.00 in
13:14 32.8 °F 28.2 °F 29.78 in WNW 6.0 mph 23.0 mph 83% 0.01 in
13:19 32.8 °F 28.2 °F 29.78 in WSW 10.0 mph 17.0 mph 83% 0.01 in
13:24 32.6 °F 28.0 °F 29.78 in WSW 10.0 mph 18.0 mph 83% 0.01 in
13:29 32.4 °F 28.1 °F 29.78 in WSW 9.0 mph 18.0 mph 84% 0.01 in
13:34 32.0 °F 27.7 °F 29.78 in WSW 9.0 mph 17.0 mph 84% 0.01 in
13:39 32.3 °F 28.0 °F 29.78 in SW 10.0 mph 20.0 mph 84% 0.01 in
13:44 32.5 °F 28.2 °F 29.78 in WSW 11.0 mph 20.0 mph 84% 0.01 in
13:49 32.6 °F 28.6 °F 29.78 in WSW 10.0 mph 19.0 mph 85% 0.01 in
13:54 32.8 °F 28.8 °F 29.78 in West 8.0 mph 21.0 mph 85% 0.01 in
13:59 33.2 °F 28.9 °F 29.78 in West 7.0 mph 20.0 mph 84% 0.01 in
14:04 33.4 °F 28.8 °F 29.78 in WNW 10.0 mph 21.0 mph 83% 0.01 in
14:09 33.1 °F 28.5 °F 29.78 in WNW 9.0 mph 21.0 mph 83% 0.01 in
14:14 32.8 °F 28.5 °F 29.78 in West 13.0 mph 19.0 mph 84% 0.00 in
14:19 32.8 °F 28.5 °F 29.78 in West 14.0 mph 20.0 mph 84% 0.00 in
14:24 32.6 °F 28.3 °F 29.78 in SW 11.0 mph 17.0 mph 84% 0.00 in
14:29 32.5 °F 28.2 °F 29.79 in WSW 7.0 mph 18.0 mph 84% 0.00 in
14:34 32.4 °F 28.1 °F 29.79 in WSW 10.0 mph 18.0 mph 84% 0.00 in
14:39 32.5 °F 28.5 °F 29.79 in WSW 9.0 mph 18.0 mph 85% 0.00 in
14:44 32.6 °F 28.3 °F 29.79 in WSW 9.0 mph 19.0 mph 84% 0.00 in
14:49 32.7 °F 28.4 °F 29.79 in WSW 10.0 mph 19.0 mph 84% 0.00 in
14:54 32.7 °F 28.1 °F 29.79 in WSW 11.0 mph 20.0 mph 83% 0.00 in
14:59 32.6 °F 28.3 °F 29.80 in SW 13.0 mph 19.0 mph 84% 0.00 in
15:04 32.5 °F 28.2 °F 29.80 in WSW 10.0 mph 20.0 mph 84% 0.00 in
15:09 32.2 °F 27.9 °F 29.80 in WSW 11.0 mph 20.0 mph 84% 0.00 in
15:14 32.2 °F 27.9 °F 29.80 in WSW 8.0 mph 18.0 mph 84% 0.00 in
15:19 32.4 °F 28.1 °F 29.80 in SW 11.0 mph 18.0 mph 84% 0.00 in
15:24 32.4 °F 28.1 °F 29.80 in WSW 8.0 mph 25.0 mph 84% 0.00 in
15:29 32.2 °F 27.9 °F 29.80 in SW 8.0 mph 23.0 mph 84% 0.00 in
15:34 32.1 °F 27.8 °F 29.80 in SW 7.0 mph 15.0 mph 84% 0.00 in
15:39 32.1 °F 28.1 °F 29.80 in WSW 10.0 mph 19.0 mph 85% 0.00 in
15:44 32.2 °F 28.2 °F 29.80 in WSW 10.0 mph 19.0 mph 85% 0.00 in
15:49 32.1 °F 27.8 °F 29.80 in WSW 9.0 mph 21.0 mph 84% 0.00 in
15:54 31.9 °F 27.9 °F 29.81 in WSW 10.0 mph 21.0 mph 85% 0.00 in
15:59 31.6 °F 27.6 °F 29.81 in WSW 10.0 mph 20.0 mph 85% 0.00 in
16:04 31.6 °F 27.9 °F 29.81 in SW 9.0 mph 15.0 mph 86% 0.00 in
16:09 31.6 °F 27.9 °F 29.82 in WSW 6.0 mph 12.0 mph 86% 0.00 in
16:14 31.5 °F 27.8 °F 29.82 in WSW 7.0 mph 14.0 mph 86% 0.00 in
16:19 31.4 °F 28.0 °F 29.82 in WSW 10.0 mph 16.0 mph 87% 0.00 in
16:24 31.4 °F 28.0 °F 29.82 in WSW 7.0 mph 16.0 mph 87% 0.00 in
16:29 31.3 °F 27.9 °F 29.82 in SW 6.0 mph 16.0 mph 87% 0.00 in
16:34 31.2 °F 27.8 °F 29.82 in WSW 7.0 mph 18.0 mph 87% 0.00 in
16:39 31.1 °F 27.4 °F 29.82 in West 10.0 mph 15.0 mph 86% 0.00 in
16:44 31.0 °F 27.6 °F 29.83 in West 4.0 mph 15.0 mph 87% 0.00 in
16:49 31.0 °F 27.6 °F 29.83 in WSW 8.0 mph 15.0 mph 87% 0.00 in
16:54 30.9 °F 27.2 °F 29.83 in West 8.0 mph 18.0 mph 86% 0.00 in
16:59 31.0 °F 27.0 °F 29.83 in West 9.0 mph 18.0 mph 85% 0.00 in
17:04 31.1 °F 27.1 °F 29.84 in West 8.0 mph 17.0 mph 85% 0.00 in
17:09 31.1 °F 26.8 °F 29.84 in West 6.0 mph 14.0 mph 84% 0.00 in
17:14 31.1 °F 26.8 °F 29.84 in WSW 4.0 mph 11.0 mph 84% 0.00 in
17:19 31.1 °F 26.8 °F 29.84 in West 9.0 mph 11.0 mph 84% 0.00 in
17:24 31.0 °F 26.7 °F 29.85 in WSW 6.0 mph 12.0 mph 84% 0.00 in
17:29 31.0 °F 27.0 °F 29.85 in WSW 6.0 mph 14.0 mph 85% 0.00 in
17:34 30.9 °F 26.6 °F 29.85 in WSW 7.0 mph 16.0 mph 84% 0.00 in
17:39 30.8 °F 26.5 °F 29.85 in WSW 10.0 mph 12.0 mph 84% 0.00 in
17:44 30.8 °F 26.5 °F 29.85 in WSW 6.0 mph 12.0 mph 84% 0.00 in
17:49 30.7 °F 26.7 °F 29.85 in WSW 8.0 mph 13.0 mph 85% 0.00 in
17:54 30.6 °F 26.6 °F 29.85 in WSW 7.0 mph 16.0 mph 85% 0.00 in
17:59 30.6 °F 26.6 °F 29.86 in WSW 7.0 mph 16.0 mph 85% 0.00 in
18:04 30.5 °F 26.2 °F 29.86 in WSW 7.0 mph 14.0 mph 84% 0.00 in
18:09 30.5 °F 26.5 °F 29.86 in West 5.0 mph 11.0 mph 85% 0.00 in
18:14 30.5 °F 26.5 °F 29.86 in West 7.0 mph 13.0 mph 85% 0.00 in
18:19 30.4 °F 26.4 °F 29.87 in WSW 11.0 mph 14.0 mph 85% 0.00 in
18:24 30.2 °F 26.2 °F 29.87 in West 6.0 mph 15.0 mph 85% 0.00 in
18:29 30.1 °F 26.1 °F 29.87 in WSW 8.0 mph 15.0 mph 85% 0.00 in
18:34 30.0 °F 26.0 °F 29.87 in West 6.0 mph 15.0 mph 85% 0.00 in
18:39 30.0 °F 26.0 °F 29.87 in WSW 6.0 mph 11.0 mph 85% 0.00 in
18:44 29.8 °F 25.8 °F 29.87 in West 6.0 mph 18.0 mph 85% 0.00 in
18:49 29.7 °F 26.0 °F 29.88 in West 7.0 mph 12.0 mph 86% 0.00 in
18:54 29.6 °F 25.9 °F 29.88 in West 9.0 mph 16.0 mph 86% 0.00 in
18:59 29.5 °F 25.8 °F 29.88 in SW 8.0 mph 13.0 mph 86% 0.00 in
19:04 29.4 °F 25.7 °F 29.88 in SW 5.0 mph 14.0 mph 86% 0.00 in
19:09 29.3 °F 25.6 °F 29.88 in WSW 6.0 mph 14.0 mph 86% 0.00 in
19:14 29.3 °F 25.6 °F 29.88 in WSW 6.0 mph 13.0 mph 86% 0.00 in
19:19 29.2 °F 25.5 °F 29.88 in WSW 6.0 mph 12.0 mph 86% 0.00 in
19:24 29.2 °F 25.5 °F 29.89 in WSW 6.0 mph 15.0 mph 86% 0.00 in
19:29 29.1 °F 25.4 °F 29.89 in WSW 4.0 mph 15.0 mph 86% 0.00 in
19:34 29.0 °F 25.3 °F 29.89 in West 5.0 mph 13.0 mph 86% 0.00 in
19:39 29.0 °F 25.1 °F 29.89 in West 8.0 mph 13.0 mph 85% 0.00 in
19:44 28.8 °F 24.9 °F 29.89 in West 6.0 mph 13.0 mph 85% 0.00 in
19:49 28.8 °F 24.6 °F 29.89 in West 6.0 mph 14.0 mph 84% 0.00 in
19:54 28.8 °F 24.6 °F 29.89 in West 6.0 mph 14.0 mph 84% 0.00 in
19:59 28.7 °F 24.2 °F 29.90 in West 6.0 mph 12.0 mph 83% 0.00 in
20:04 28.7 °F 24.2 °F 29.90 in West 3.0 mph 14.0 mph 83% 0.00 in
20:09 28.7 °F 23.9 °F 29.90 in West 7.0 mph 12.0 mph 82% 0.00 in
20:14 28.7 °F 23.6 °F 29.90 in WSW 7.0 mph 10.0 mph 81% 0.00 in
20:19 28.7 °F 23.6 °F 29.91 in West 5.0 mph 11.0 mph 81% 0.00 in
20:24 28.7 °F 23.3 °F 29.91 in West 5.0 mph 11.0 mph 80% 0.00 in
20:29 28.7 °F 23.0 °F 29.91 in WSW 6.0 mph 9.0 mph 79% 0.00 in
20:34 28.5 °F 22.5 °F 29.91 in West 9.0 mph 10.0 mph 78% 0.00 in
20:39 28.5 °F 22.5 °F 29.91 in West 5.0 mph 11.0 mph 78% 0.00 in
20:44 28.5 °F 22.2 °F 29.91 in WNW 8.0 mph 10.0 mph 77% 0.00 in
20:49 28.5 °F 21.9 °F 29.91 in WNW 5.0 mph 11.0 mph 76% 0.00 in
20:54 28.6 °F 21.7 °F 29.92 in West 5.0 mph 11.0 mph 75% 0.00 in
20:59 28.7 °F 21.8 °F 29.91 in West 6.0 mph 15.0 mph 75% 0.00 in
21:04 28.7 °F 21.5 °F 29.91 in West 7.0 mph 15.0 mph 74% 0.00 in
21:09 28.7 °F 21.1 °F 29.92 in West 6.0 mph 12.0 mph 73% 0.00 in
21:14 28.7 °F 21.1 °F 29.92 in West 5.0 mph 9.0 mph 73% 0.00 in
21:19 28.7 °F 20.8 °F 29.92 in West 5.0 mph 11.0 mph 72% 0.00 in
21:24 28.7 °F 20.8 °F 29.92 in WSW 3.0 mph 11.0 mph 72% 0.00 in
21:29 28.7 °F 20.8 °F 29.92 in West 5.0 mph 11.0 mph 72% 0.00 in
21:34 28.7 °F 20.5 °F 29.92 in SW 5.0 mph 10.0 mph 71% 0.00 in
21:39 28.8 °F 20.6 °F 29.92 in West 4.0 mph 12.0 mph 71% 0.00 in
21:44 28.8 °F 20.6 °F 29.92 in West 7.0 mph 10.0 mph 71% 0.00 in
21:49 28.7 °F 20.5 °F 29.92 in West 7.0 mph 10.0 mph 71% 0.00 in
21:54 28.7 °F 20.1 °F 29.92 in West 5.0 mph 10.0 mph 70% 0.00 in
21:59 28.7 °F 20.1 °F 29.92 in NW 6.0 mph 11.0 mph 70% 0.00 in
22:04 28.6 °F 20.1 °F 29.92 in West 6.0 mph 13.0 mph 70% 0.00 in
22:09 28.6 °F 20.1 °F 29.92 in West 5.0 mph 13.0 mph 70% 0.00 in
22:14 28.6 °F 20.1 °F 29.93 in West 5.0 mph 12.0 mph 70% 0.00 in
22:19 28.7 °F 20.1 °F 29.93 in West 6.0 mph 13.0 mph 70% 0.00 in
22:24 28.7 °F 20.1 °F 29.93 in West 6.0 mph 13.0 mph 70% 0.00 in
22:29 28.7 °F 20.1 °F 29.93 in West 5.0 mph 13.0 mph 70% 0.00 in
22:34 28.6 °F 20.1 °F 29.93 in SW 8.0 mph 9.0 mph 70% 0.00 in
22:39 28.5 °F 20.0 °F 29.93 in West 6.0 mph 13.0 mph 70% 0.00 in
22:44 28.5 °F 20.3 °F 29.93 in West 3.0 mph 11.0 mph 71% 0.00 in
22:49 28.4 °F 20.2 °F 29.93 in WSW 7.0 mph 11.0 mph 71% 0.00 in
22:54 28.5 °F 20.3 °F 29.93 in NW 4.0 mph 11.0 mph 71% 0.00 in
22:59 28.4 °F 20.2 °F 29.93 in West 4.0 mph 13.0 mph 71% 0.00 in
23:04 28.3 °F 20.4 °F 29.93 in WSW 7.0 mph 10.0 mph 72% 0.00 in
23:09 28.3 °F 20.4 °F 29.93 in WSW 6.0 mph 11.0 mph 72% 0.00 in
23:14 28.3 °F 20.4 °F 29.93 in West 5.0 mph 12.0 mph 72% 0.00 in
23:19 28.4 °F 20.5 °F 29.93 in West 6.0 mph 15.0 mph 72% 0.00 in
23:24 28.5 °F 20.6 °F 29.93 in West 6.0 mph 15.0 mph 72% 0.00 in
23:29 28.4 °F 20.8 °F 29.93 in West 5.0 mph 12.0 mph 73% 0.00 in
23:34 28.5 °F 20.9 °F 29.93 in WSW 3.0 mph 13.0 mph 73% 0.00 in
23:39 28.5 °F 20.9 °F 29.93 in WNW 7.0 mph 16.0 mph 73% 0.00 in
23:44 28.5 °F 21.3 °F 29.93 in West 5.0 mph 8.0 mph 74% 0.00 in
23:49 28.5 °F 21.3 °F 29.93 in West 5.0 mph 11.0 mph 74% 0.00 in
23:54 28.5 °F 21.3 °F 29.93 in West 3.0 mph 12.0 mph 74% 0.00 in
23:59 28.5 °F 21.6 °F 29.93 in WSW 5.0 mph 11.0 mph 75% 0.00 in
Buffalo, New York, USA
Compliments of Weather Underground - 2.5 mb